Regional Weather Roundup
Issued by NWS Albany, NY

Current Version | Previous Version | Text Only | Print | Product List | Glossary On
Versions: 1 2 3 4 5 6 7 8 9 10 11 12 13 14 15 16 17 18 19 20 21 22 23 24 25 26 27
000 ASUS41 KALY 271410 RWRALY NEW YORK STATE HOURLY WEATHER ROUNDUP NATIONAL WEATHER SERVICE ALBANY NY 1000 AM EDT MON JUN 27 2016 NOTE: "FAIR" INDICATES FEW OR NO CLOUDS BELOW 12,000 FEET WITH NO SIGNIFICANT WEATHER AND/OR NO OBSTRUCTIONS TO VISIBILITY. NYZ032-033-038>043-046>054-057>066-NYZ062>081-082-084-271500- EAST CITY SKY/WX TMP DP RH WIND PRES REMARKS ALBANY PTSUNNY 76 55 48 S14G20 30.01F GLENS FALLS MOSUNNY 77 59 53 S12G18 29.99F POUGHKEEPSIE SUNNY 79 56 45 S10 30.05F NEWBURGH SUNNY 77 59 53 W12 30.08F MONTGOMERY CLOUDY 76 59 55 SW9 30.06F WHITE PLAINS MOSUNNY 75 61 61 SW9 30.10S ISLIP PTSUNNY 75 61 61 SW13 30.11F NEW YORK CITY PTSUNNY 77 61 57 SW8 30.09F CENTRAL PARK SUNNY 74 61 63 CALM 30.12F $$ NYZ005>009-017-018-044>046-055-056-271500- CENTRAL CITY SKY/WX TMP DP RH WIND PRES REMARKS FULTON LGT RAIN 69 64 84 VRB5 29.94F SYRACUSE CLOUDY 71 64 78 SE5 29.95S ROME LGT RAIN 68 64 87 E7 29.99S ELMIRA LGT RAIN 73 60 63 W3 29.99F BINGHAMTON CLOUDY 72 56 57 S9 30.03F MONTICELLO MOSUNNY 73 55 53 SE8 30.10F $$ NYZ026>034-041>043-087-271500- NORTH CITY SKY/WX TMP DP RH WIND PRES REMARKS WATERTOWN CLOUDY 69 64 84 S8G17 29.91S FORT DRUM NOT AVBL MASSENA CLOUDY 72 65 78 SW13G20 29.89S SARANAC LAKE PTSUNNY 68 61 78 SW14 29.96S PLATTSBURGH LGT RAIN 71 62 73 SE7 29.91S $$ NYZ001>004-010>016-019>021-085-271500- WEST CITY SKY/WX TMP DP RH WIND PRES REMARKS NIAGARA FALLS PTSUNNY 78 68 71 SW9 29.93S BUFFALO CLOUDY 74 69 85 SW16 29.95S DUNKIRK MOSUNNY 76 70 82 SW13 29.98R JAMESTOWN CLOUDY 73 66 78 SW10 30.03S WELLSVILLE CLOUDY 68 66 93 SW9 30.05F ROCHESTER CLOUDY 76 72 87 SW10 29.93S PENN YAN LGT RAIN 68 64 87 SW9 29.98S $$ KEY WCI = WIND CHILL INDEX VSB = VISIBILITY HX = HEAT INDEX $$

USA.gov is the U.S. government's official web portal to all federal, state and local government web resources and services.